Time,TemperatureF,DewpointF,PressureIn,WindDirection,WindDirectionDegrees,WindSpeedMPH,WindSpeedGustMPH,Humidity,HourlyPrecipIn,Conditions,Clouds,dailyrainin,SoftwareType,DateUTC
2013-02-13 00:00:00,41.7,40.4,29.84,WNW,289,0.0,0.0,95,0.00,,---,0.07,VWS V14.01,2013-02-13 05:00:00,
2013-02-13 00:05:00,41.9,40.8,29.84,WNW,289,0.0,0.0,96,0.00,,---,0.00,VWS V14.01,2013-02-13 05:05:00,
2013-02-13 00:10:00,41.8,40.5,29.84,WNW,289,0.0,0.0,95,0.00,,---,0.00,VWS V14.01,2013-02-13 05:10:00,
2013-02-13 00:15:00,41.8,40.5,29.83,WNW,289,0.0,0.0,95,0.00,,---,0.00,VWS V14.01,2013-02-13 05:15:00,
2013-02-13 00:20:00,41.8,40.5,29.83,NW,316,0.0,1.0,95,0.00,,---,0.00,VWS V14.01,2013-02-13 05:20:00,
2013-02-13 00:25:00,41.8,40.5,29.83,NW,316,0.0,0.0,95,0.00,,---,0.00,VWS V14.01,2013-02-13 05:25:00,
2013-02-13 00:30:00,41.9,40.6,29.82,NW,316,0.0,0.0,95,0.00,,---,0.00,VWS V14.01,2013-02-13 05:30:00,
2013-02-13 00:35:00,41.9,40.6,29.82,NW,316,0.0,0.0,95,0.00,,---,0.00,VWS V14.01,2013-02-13 05:35:00,
2013-02-13 00:40:00,41.8,40.5,29.82,NW,316,0.0,0.0,95,0.00,,---,0.00,VWS V14.01,2013-02-13 05:40:00,
2013-02-13 00:45:00,41.8,40.5,29.82,NW,316,0.0,0.0,95,0.00,,---,0.00,VWS V14.01,2013-02-13 05:45:00,
2013-02-13 00:50:00,41.8,40.5,29.81,NW,316,1.0,1.0,95,0.00,,---,0.00,VWS V14.01,2013-02-13 05:50:00,
2013-02-13 00:55:00,41.9,40.3,29.82,NW,316,0.0,1.0,94,0.00,,---,0.00,VWS V14.01,2013-02-13 05:55:00,
2013-02-13 01:00:00,42.0,40.4,29.82,NW,316,0.0,0.0,94,0.00,,---,0.00,VWS V14.01,2013-02-13 06:00:00,
2013-02-13 01:05:00,41.9,40.0,29.82,NW,318,1.0,1.0,93,0.00,,---,0.00,VWS V14.01,2013-02-13 06:05:00,
2013-02-13 01:10:00,42.1,40.0,29.82,SSW,210,0.0,2.0,92,0.00,,---,0.00,VWS V14.01,2013-02-13 06:10:00,
2013-02-13 01:15:00,42.2,40.0,29.81,South,174,0.0,1.0,92,0.01,,---,0.01,VWS V14.01,2013-02-13 06:15:00,
2013-02-13 01:20:00,42.2,40.3,29.80,South,174,0.0,0.0,93,0.01,,---,0.01,VWS V14.01,2013-02-13 06:20:00,
2013-02-13 01:25:00,42.0,40.1,29.81,South,175,0.0,0.0,93,0.01,,---,0.01,VWS V14.01,2013-02-13 06:25:00,
2013-02-13 01:30:00,41.9,40.0,29.80,South,174,0.0,1.0,93,0.01,,---,0.01,VWS V14.01,2013-02-13 06:30:00,
2013-02-13 01:35:00,41.8,40.2,29.80,South,174,0.0,0.0,94,0.01,,---,0.01,VWS V14.01,2013-02-13 06:35:00,
2013-02-13 01:40:00,41.8,40.2,29.80,South,174,0.0,0.0,94,0.01,,---,0.01,VWS V14.01,2013-02-13 06:40:00,
2013-02-13 01:45:00,41.7,40.1,29.80,SSW,212,0.0,1.0,94,0.01,,---,0.01,VWS V14.01,2013-02-13 06:45:00,
2013-02-13 01:50:00,41.5,39.6,29.79,SSW,212,0.0,1.0,93,0.01,,---,0.01,VWS V14.01,2013-02-13 06:50:00,
2013-02-13 01:55:00,41.6,40.0,29.79,SSW,212,1.0,1.0,94,0.01,,---,0.01,VWS V14.01,2013-02-13 06:55:00,
2013-02-13 02:00:00,41.6,40.0,29.79,WNW,301,1.0,1.0,94,0.02,,---,0.02,VWS V14.01,2013-02-13 07:00:00,
2013-02-13 02:05:00,41.5,39.9,29.80,South,170,0.0,2.0,94,0.02,,---,0.02,VWS V14.01,2013-02-13 07:05:00,
2013-02-13 02:10:00,41.4,39.8,29.80,SW,226,2.0,3.0,94,0.02,,---,0.02,VWS V14.01,2013-02-13 07:10:00,
2013-02-13 02:15:00,41.4,39.8,29.78,ESE,105,2.0,2.0,94,0.03,,---,0.03,VWS V14.01,2013-02-13 07:15:00,
2013-02-13 02:20:00,41.4,39.8,29.79,SSW,212,0.0,2.0,94,0.02,,---,0.03,VWS V14.01,2013-02-13 07:20:00,
2013-02-13 02:25:00,41.4,40.1,29.79,SSW,212,0.0,1.0,95,0.02,,---,0.03,VWS V14.01,2013-02-13 07:25:00,
2013-02-13 02:30:00,41.4,40.1,29.79,SSW,212,0.0,0.0,95,0.02,,---,0.03,VWS V14.01,2013-02-13 07:30:00,
2013-02-13 02:35:00,41.3,40.0,29.79,SSW,212,0.0,0.0,95,0.02,,---,0.03,VWS V14.01,2013-02-13 07:35:00,
2013-02-13 02:40:00,41.3,40.0,29.78,SSW,212,0.0,0.0,95,0.02,,---,0.03,VWS V14.01,2013-02-13 07:40:00,
2013-02-13 02:45:00,41.3,40.0,29.78,SSW,212,0.0,0.0,95,0.02,,---,0.03,VWS V14.01,2013-02-13 07:45:00,
2013-02-13 02:50:00,41.3,40.0,29.77,SSW,212,0.0,0.0,95,0.02,,---,0.03,VWS V14.01,2013-02-13 07:50:00,
2013-02-13 02:55:00,41.3,40.2,29.78,SSW,212,0.0,0.0,96,0.02,,---,0.03,VWS V14.01,2013-02-13 07:55:00,
2013-02-13 03:00:00,41.2,40.2,29.77,SSW,212,0.0,0.0,96,0.02,,---,0.03,VWS V14.01,2013-02-13 08:00:00,
2013-02-13 03:05:00,41.3,40.2,29.77,SSW,212,0.0,0.0,96,0.01,,---,0.03,VWS V14.01,2013-02-13 08:05:00,
2013-02-13 03:10:00,41.3,40.2,29.77,SSW,212,0.0,0.0,96,0.01,,---,0.03,VWS V14.01,2013-02-13 08:10:00,
2013-02-13 03:15:00,41.3,40.2,29.77,SSW,212,0.0,1.0,96,0.01,,---,0.03,VWS V14.01,2013-02-13 08:15:00,
2013-02-13 03:20:00,41.3,40.2,29.77,SSW,213,0.0,1.0,96,0.00,,---,0.03,VWS V14.01,2013-02-13 08:20:00,
2013-02-13 03:25:00,41.3,40.2,29.77,SSW,212,0.0,0.0,96,0.00,,---,0.03,VWS V14.01,2013-02-13 08:25:00,
2013-02-13 03:30:00,41.4,40.3,29.76,SSW,212,0.0,0.0,96,0.00,,---,0.03,VWS V14.01,2013-02-13 08:30:00,
2013-02-13 03:35:00,41.4,40.3,29.75,SSW,212,0.0,0.0,96,0.01,,---,0.04,VWS V14.01,2013-02-13 08:35:00,
2013-02-13 03:40:00,41.4,40.3,29.75,SSW,212,0.0,0.0,96,0.01,,---,0.04,VWS V14.01,2013-02-13 08:40:00,
2013-02-13 03:45:00,41.4,40.6,29.75,SSW,212,0.0,0.0,97,0.01,,---,0.04,VWS V14.01,2013-02-13 08:45:00,
2013-02-13 03:50:00,41.4,40.3,29.75,SSW,212,0.0,0.0,96,0.01,,---,0.04,VWS V14.01,2013-02-13 08:50:00,
2013-02-13 03:55:00,41.4,40.6,29.75,SSW,212,0.0,0.0,97,0.01,,---,0.04,VWS V14.01,2013-02-13 08:55:00,
2013-02-13 04:00:00,41.4,40.6,29.75,SSW,213,0.0,0.0,97,0.01,,---,0.04,VWS V14.01,2013-02-13 09:00:00,
2013-02-13 04:05:00,41.4,40.6,29.75,SSW,212,0.0,0.0,97,0.01,,---,0.04,VWS V14.01,2013-02-13 09:05:00,
2013-02-13 04:10:00,41.5,40.7,29.74,SSW,212,0.0,0.0,97,0.01,,---,0.04,VWS V14.01,2013-02-13 09:10:00,
2013-02-13 04:15:00,41.4,40.6,29.74,SSW,210,0.0,1.0,97,0.01,,---,0.04,VWS V14.01,2013-02-13 09:15:00,
2013-02-13 04:20:00,41.3,40.5,29.73,SSW,211,0.0,0.0,97,0.01,,---,0.04,VWS V14.01,2013-02-13 09:20:00,
2013-02-13 04:25:00,41.3,40.5,29.73,SSW,211,0.0,0.0,97,0.01,,---,0.04,VWS V14.01,2013-02-13 09:25:00,
2013-02-13 04:30:00,41.4,40.6,29.72,SSW,211,0.0,0.0,97,0.01,,---,0.04,VWS V14.01,2013-02-13 09:30:00,
2013-02-13 04:35:00,41.4,40.3,29.75,SSW,212,0.0,0.0,96,0.01,,---,0.04,VWS V14.01,2013-02-13 09:35:00,
2013-02-13 04:36:00,41.4,40.6,29.72,SSW,212,0.0,0.0,97,0.00,,---,0.04,VWS V14.01,2013-02-13 09:36:00,
2013-02-13 04:40:00,41.4,40.3,29.75,SSW,212,0.0,0.0,96,0.01,,---,0.04,VWS V14.01,2013-02-13 09:40:00,
2013-02-13 04:41:00,41.3,40.5,29.72,SSW,212,0.0,0.0,97,0.00,,---,0.04,VWS V14.01,2013-02-13 09:41:00,
2013-02-13 04:45:00,41.4,40.3,29.75,SSW,212,0.0,0.0,96,0.01,,---,0.04,VWS V14.01,2013-02-13 09:45:00,
2013-02-13 04:46:00,41.3,40.5,29.72,SSW,212,0.0,0.0,97,0.00,,---,0.04,VWS V14.01,2013-02-13 09:46:00,
2013-02-13 04:50:00,41.4,40.3,29.75,SSW,212,0.0,0.0,96,0.01,,---,0.04,VWS V14.01,2013-02-13 09:50:00,
2013-02-13 04:51:00,41.4,40.6,29.73,SSW,212,0.0,0.0,97,0.01,,---,0.05,VWS V14.01,2013-02-13 09:51:00,
2013-02-13 04:55:00,41.4,40.6,29.75,SSW,212,0.0,0.0,97,0.01,,---,0.04,VWS V14.01,2013-02-13 09:55:00,
2013-02-13 04:56:00,41.3,40.5,29.72,SSW,211,0.0,0.0,97,0.01,,---,0.05,VWS V14.01,2013-02-13 09:56:00,
2013-02-13 05:00:00,41.4,40.6,29.75,SSW,212,0.0,1.0,97,0.01,,---,0.04,VWS V14.01,2013-02-13 10:00:00,
2013-02-13 05:01:00,41.3,40.5,29.71,SSW,211,0.0,0.0,97,0.01,,---,0.05,VWS V14.01,2013-02-13 10:01:00,
2013-02-13 05:05:00,41.4,40.6,29.74,SSW,212,0.0,0.0,97,0.01,,---,0.04,VWS V14.01,2013-02-13 10:05:00,
2013-02-13 05:06:00,41.3,40.5,29.72,SSW,211,0.0,0.0,97,0.01,,---,0.05,VWS V14.01,2013-02-13 10:06:00,
2013-02-13 05:10:00,41.5,40.7,29.75,SSW,212,0.0,0.0,97,0.01,,---,0.04,VWS V14.01,2013-02-13 10:10:00,
2013-02-13 05:11:00,41.3,40.5,29.71,SSW,211,0.0,0.0,97,0.01,,---,0.05,VWS V14.01,2013-02-13 10:11:00,
2013-02-13 05:15:00,41.4,40.6,29.74,SSW,211,1.0,2.0,97,0.01,,---,0.04,VWS V14.01,2013-02-13 10:15:00,
2013-02-13 05:16:00,41.3,40.5,29.71,SSW,211,0.0,0.0,97,0.01,,---,0.05,VWS V14.01,2013-02-13 10:16:00,
2013-02-13 05:20:00,41.3,40.5,29.73,SSW,211,0.0,1.0,97,0.01,,---,0.04,VWS V14.01,2013-02-13 10:20:00,
2013-02-13 05:21:00,41.4,40.6,29.72,SSW,211,0.0,0.0,97,0.01,,---,0.05,VWS V14.01,2013-02-13 10:21:00,
2013-02-13 05:25:00,41.3,40.5,29.73,SSW,211,0.0,1.0,97,0.01,,---,0.04,VWS V14.01,2013-02-13 10:25:00,
2013-02-13 05:26:00,41.4,40.6,29.72,SSW,211,0.0,0.0,97,0.01,,---,0.05,VWS V14.01,2013-02-13 10:26:00,
2013-02-13 05:30:00,41.4,40.6,29.72,SSW,211,0.0,0.0,97,0.01,,---,0.04,VWS V14.01,2013-02-13 10:30:00,
2013-02-13 05:31:00,41.4,40.6,29.71,SSW,212,0.0,0.0,97,0.02,,---,0.06,VWS V14.01,2013-02-13 10:31:00,
2013-02-13 05:35:00,41.4,40.6,29.72,SSW,212,0.0,1.0,97,0.01,,---,0.04,VWS V14.01,2013-02-13 10:35:00,
2013-02-13 05:36:00,41.4,40.6,29.70,SSW,212,0.0,0.0,97,0.02,,---,0.06,VWS V14.01,2013-02-13 10:36:00,
2013-02-13 05:40:00,41.3,40.5,29.72,SSW,212,0.0,0.0,97,0.00,,---,0.04,VWS V14.01,2013-02-13 10:40:00,
2013-02-13 05:41:00,41.4,40.6,29.71,SSW,212,0.0,0.0,97,0.03,,---,0.07,VWS V14.01,2013-02-13 10:41:00,
2013-02-13 05:45:00,41.3,40.5,29.72,SSW,212,0.0,1.0,97,0.00,,---,0.04,VWS V14.01,2013-02-13 10:45:00,
2013-02-13 05:46:00,41.5,40.7,29.71,SSW,213,0.0,0.0,97,0.03,,---,0.07,VWS V14.01,2013-02-13 10:46:00,
2013-02-13 05:50:00,41.4,40.6,29.72,SSW,212,0.0,0.0,97,0.01,,---,0.05,VWS V14.01,2013-02-13 10:50:00,
2013-02-13 05:51:00,41.5,40.7,29.70,SSW,212,0.0,0.0,97,0.02,,---,0.07,VWS V14.01,2013-02-13 10:51:00,
2013-02-13 05:55:00,41.3,40.5,29.72,SSW,210,0.0,0.0,97,0.01,,---,0.05,VWS V14.01,2013-02-13 10:55:00,
2013-02-13 05:56:00,41.5,40.7,29.70,SSW,212,0.0,0.0,97,0.02,,---,0.07,VWS V14.01,2013-02-13 10:56:00,
2013-02-13 06:00:00,41.3,40.5,29.71,SSW,212,0.0,1.0,97,0.01,,---,0.05,VWS V14.01,2013-02-13 11:00:00,
2013-02-13 06:01:00,41.5,40.7,29.71,SSW,212,0.0,0.0,97,0.02,,---,0.07,VWS V14.01,2013-02-13 11:01:00,
2013-02-13 06:05:00,41.3,40.5,29.72,SSW,212,0.0,0.0,97,0.01,,---,0.05,VWS V14.01,2013-02-13 11:05:00,
2013-02-13 06:06:00,41.5,40.7,29.71,SSW,212,0.0,0.0,97,0.02,,---,0.07,VWS V14.01,2013-02-13 11:06:00,
2013-02-13 06:10:00,41.3,40.5,29.71,SSW,211,0.0,0.0,97,0.01,,---,0.05,VWS V14.01,2013-02-13 11:10:00,
2013-02-13 06:11:00,41.5,40.7,29.70,SSW,210,0.0,0.0,97,0.03,,---,0.08,VWS V14.01,2013-02-13 11:11:00,
2013-02-13 06:15:00,41.4,40.6,29.71,SSW,212,0.0,0.0,97,0.01,,---,0.05,VWS V14.01,2013-02-13 11:15:00,
2013-02-13 06:16:00,41.6,41.1,29.71,SSW,210,0.0,0.0,98,0.03,,---,0.08,VWS V14.01,2013-02-13 11:16:00,
2013-02-13 06:20:00,41.4,40.6,29.72,SSW,211,0.0,1.0,97,0.01,,---,0.05,VWS V14.01,2013-02-13 11:20:00,
2013-02-13 06:21:00,41.6,41.1,29.71,NE,50,0.0,0.0,98,0.03,,---,0.08,VWS V14.01,2013-02-13 11:21:00,
2013-02-13 06:25:00,41.4,40.6,29.72,SSW,211,0.0,1.0,97,0.01,,---,0.05,VWS V14.01,2013-02-13 11:25:00,
2013-02-13 06:26:00,41.6,41.1,29.70,NE,49,0.0,0.0,98,0.03,,---,0.08,VWS V14.01,2013-02-13 11:26:00,
2013-02-13 06:30:00,41.4,40.6,29.71,SSW,213,0.0,0.0,97,0.02,,---,0.06,VWS V14.01,2013-02-13 11:30:00,
2013-02-13 06:31:00,41.6,41.1,29.71,NE,50,0.0,0.0,98,0.03,,---,0.09,VWS V14.01,2013-02-13 11:31:00,
2013-02-13 06:35:00,41.4,40.6,29.70,SSW,213,0.0,0.0,97,0.02,,---,0.06,VWS V14.01,2013-02-13 11:35:00,
2013-02-13 06:36:00,41.7,41.2,29.71,NNE,32,1.0,1.0,98,0.03,,---,0.09,VWS V14.01,2013-02-13 11:36:00,
2013-02-13 06:40:00,41.4,40.6,29.71,SSW,212,0.0,0.0,97,0.03,,---,0.07,VWS V14.01,2013-02-13 11:40:00,
2013-02-13 06:41:00,41.7,41.2,29.71,NNW,333,0.0,0.0,98,0.02,,---,0.09,VWS V14.01,2013-02-13 11:41:00,
2013-02-13 06:45:00,41.5,40.7,29.70,SSW,212,0.0,0.0,97,0.03,,---,0.07,VWS V14.01,2013-02-13 11:45:00,
2013-02-13 06:46:00,41.8,41.3,29.71,NNW,334,1.0,2.0,98,0.02,,---,0.09,VWS V14.01,2013-02-13 11:46:00,
2013-02-13 06:50:00,41.5,40.7,29.71,SSW,212,0.0,1.0,97,0.03,,---,0.07,VWS V14.01,2013-02-13 11:50:00,
2013-02-13 06:51:00,41.8,41.3,29.71,NNE,17,0.0,1.0,98,0.03,,---,0.10,VWS V14.01,2013-02-13 11:51:00,
2013-02-13 06:55:00,41.5,40.7,29.70,SSW,212,0.0,0.0,97,0.02,,---,0.07,VWS V14.01,2013-02-13 11:55:00,
2013-02-13 06:56:00,41.8,41.3,29.71,ENE,58,1.0,2.0,98,0.03,,---,0.10,VWS V14.01,2013-02-13 11:56:00,
2013-02-13 07:00:00,41.5,40.7,29.70,SSW,212,0.0,0.0,97,0.02,,---,0.07,VWS V14.01,2013-02-13 12:00:00,
2013-02-13 07:01:00,41.8,41.3,29.70,NE,56,0.0,0.0,98,0.03,,---,0.10,VWS V14.01,2013-02-13 12:01:00,
2013-02-13 07:05:00,41.5,40.7,29.71,SSW,212,0.0,1.0,97,0.02,,---,0.07,VWS V14.01,2013-02-13 12:05:00,
2013-02-13 07:06:00,41.9,41.4,29.70,ENE,58,0.0,0.0,98,0.03,,---,0.10,VWS V14.01,2013-02-13 12:06:00,
2013-02-13 07:10:00,41.5,40.7,29.70,SSW,211,0.0,1.0,97,0.03,,---,0.08,VWS V14.01,2013-02-13 12:10:00,
2013-02-13 07:11:00,41.9,41.4,29.71,ENE,58,0.0,0.0,98,0.02,,---,0.10,VWS V14.01,2013-02-13 12:11:00,
2013-02-13 07:15:00,41.5,41.0,29.70,SSW,211,0.0,0.0,98,0.03,,---,0.08,VWS V14.01,2013-02-13 12:15:00,
2013-02-13 07:16:00,42.0,41.5,29.71,ENE,63,1.0,1.0,98,0.03,,---,0.11,VWS V14.01,2013-02-13 12:16:00,
2013-02-13 07:20:00,41.6,41.1,29.71,NE,50,0.0,1.0,98,0.03,,---,0.08,VWS V14.01,2013-02-13 12:20:00,
2013-02-13 07:21:00,42.0,41.5,29.71,NNW,336,1.0,1.0,98,0.03,,---,0.11,VWS V14.01,2013-02-13 12:21:00,
2013-02-13 07:25:00,41.6,41.1,29.70,NE,50,0.0,1.0,98,0.03,,---,0.08,VWS V14.01,2013-02-13 12:25:00,
2013-02-13 07:26:00,42.1,41.6,29.72,NW,314,1.0,1.0,98,0.03,,---,0.11,VWS V14.01,2013-02-13 12:26:00,
2013-02-13 07:30:00,41.6,41.1,29.71,NE,50,0.0,1.0,98,0.04,,---,0.09,VWS V14.01,2013-02-13 12:30:00,
2013-02-13 07:31:00,42.1,41.6,29.72,ENE,77,2.0,3.0,98,0.02,,---,0.11,VWS V14.01,2013-02-13 12:31:00,
2013-02-13 07:35:00,41.7,41.2,29.71,NNE,31,0.0,2.0,98,0.03,,---,0.09,VWS V14.01,2013-02-13 12:35:00,
2013-02-13 07:36:00,42.2,41.7,29.71,NE,53,0.0,0.0,98,0.02,,---,0.11,VWS V14.01,2013-02-13 12:36:00,
2013-02-13 07:40:00,41.7,41.2,29.71,NNW,333,0.0,1.0,98,0.03,,---,0.09,VWS V14.01,2013-02-13 12:40:00,
2013-02-13 07:41:00,42.3,41.8,29.72,NE,53,1.0,1.0,98,0.02,,---,0.11,VWS V14.01,2013-02-13 12:41:00,
2013-02-13 07:45:00,41.7,41.2,29.71,NNW,329,1.0,3.0,98,0.02,,---,0.09,VWS V14.01,2013-02-13 12:45:00,
2013-02-13 07:46:00,42.4,41.9,29.71,ENE,67,1.0,2.0,98,0.02,,---,0.11,VWS V14.01,2013-02-13 12:46:00,
2013-02-13 07:50:00,41.8,41.3,29.71,NNE,17,0.0,2.0,98,0.03,,---,0.10,VWS V14.01,2013-02-13 12:50:00,
2013-02-13 07:51:00,42.4,41.9,29.72,NE,52,0.0,1.0,98,0.01,,---,0.11,VWS V14.01,2013-02-13 12:51:00,
2013-02-13 07:55:00,41.8,41.3,29.71,ENE,57,2.0,2.0,98,0.03,,---,0.10,VWS V14.01,2013-02-13 12:55:00,
2013-02-13 07:56:00,42.5,42.0,29.72,NE,44,0.0,2.0,98,0.01,,---,0.11,VWS V14.01,2013-02-13 12:56:00,
2013-02-13 08:00:00,41.8,41.3,29.70,NE,56,0.0,2.0,98,0.03,,---,0.10,VWS V14.01,2013-02-13 13:00:00,
2013-02-13 08:01:00,42.5,42.0,29.71,North,360,0.0,1.0,98,0.01,,---,0.11,VWS V14.01,2013-02-13 13:01:00,
2013-02-13 08:05:00,41.9,41.4,29.70,ENE,58,0.0,1.0,98,0.03,,---,0.10,VWS V14.01,2013-02-13 13:05:00,
2013-02-13 08:06:00,42.6,42.1,29.72,North,8,3.0,4.0,98,0.02,,---,0.12,VWS V14.01,2013-02-13 13:06:00,
2013-02-13 08:10:00,41.9,41.4,29.71,ENE,58,0.0,2.0,98,0.03,,---,0.10,VWS V14.01,2013-02-13 13:10:00,
2013-02-13 08:11:00,42.7,42.2,29.72,NE,43,1.0,1.0,98,0.02,,---,0.12,VWS V14.01,2013-02-13 13:11:00,
2013-02-13 08:15:00,42.0,41.5,29.71,ENE,63,0.0,2.0,98,0.02,,---,0.10,VWS V14.01,2013-02-13 13:15:00,
2013-02-13 08:16:00,42.8,42.3,29.71,NNE,19,1.0,1.0,98,0.02,,---,0.12,VWS V14.01,2013-02-13 13:16:00,
2013-02-13 08:20:00,42.0,41.5,29.71,NNW,335,1.0,1.0,98,0.03,,---,0.11,VWS V14.01,2013-02-13 13:20:00,
2013-02-13 08:21:00,42.9,42.4,29.71,NNW,330,0.0,1.0,98,0.01,,---,0.12,VWS V14.01,2013-02-13 13:21:00,
2013-02-13 08:25:00,42.1,41.6,29.72,NNW,342,0.0,3.0,98,0.03,,---,0.11,VWS V14.01,2013-02-13 13:25:00,
2013-02-13 08:26:00,43.1,42.6,29.71,ENE,58,2.0,3.0,98,0.01,,---,0.12,VWS V14.01,2013-02-13 13:26:00,
2013-02-13 08:30:00,42.2,41.7,29.72,NE,50,2.0,2.0,98,0.03,,---,0.11,VWS V14.01,2013-02-13 13:30:00,
2013-02-13 08:31:00,43.2,42.7,29.71,NNW,348,2.0,2.0,98,0.02,,---,0.13,VWS V14.01,2013-02-13 13:31:00,
2013-02-13 08:35:00,42.2,41.7,29.71,NE,55,0.0,3.0,98,0.02,,---,0.11,VWS V14.01,2013-02-13 13:35:00,
2013-02-13 08:36:00,43.3,42.8,29.72,North,3,4.0,4.0,98,0.02,,---,0.13,VWS V14.01,2013-02-13 13:36:00,
2013-02-13 08:40:00,42.3,41.8,29.72,NE,53,1.0,1.0,98,0.02,,---,0.11,VWS V14.01,2013-02-13 13:40:00,
2013-02-13 08:41:00,43.5,43.2,29.73,ENE,76,3.0,3.0,99,0.02,,---,0.13,VWS V14.01,2013-02-13 13:41:00,
2013-02-13 08:45:00,42.3,41.8,29.72,ENE,72,2.0,2.0,98,0.02,,---,0.11,VWS V14.01,2013-02-13 13:45:00,
2013-02-13 08:46:00,43.6,43.3,29.72,North,350,3.0,6.0,99,0.02,,---,0.13,VWS V14.01,2013-02-13 13:46:00,
2013-02-13 08:50:00,42.4,41.9,29.72,NE,52,1.0,2.0,98,0.02,,---,0.11,VWS V14.01,2013-02-13 13:50:00,
2013-02-13 08:51:00,43.7,43.4,29.73,North,8,5.0,5.0,99,0.02,,---,0.13,VWS V14.01,2013-02-13 13:51:00,
2013-02-13 08:55:00,42.5,42.0,29.72,NE,46,1.0,2.0,98,0.01,,---,0.11,VWS V14.01,2013-02-13 13:55:00,
2013-02-13 08:56:00,43.8,43.5,29.72,NE,38,5.0,9.0,99,0.02,,---,0.13,VWS V14.01,2013-02-13 13:56:00,
2013-02-13 09:00:00,42.5,42.0,29.71,North,359,1.0,3.0,98,0.01,,---,0.11,VWS V14.01,2013-02-13 14:00:00,
2013-02-13 09:01:00,44.0,43.7,29.73,NE,53,3.0,5.0,99,0.02,,---,0.13,VWS V14.01,2013-02-13 14:01:00,
2013-02-13 09:05:00,42.6,42.1,29.72,NNE,27,3.0,4.0,98,0.02,,---,0.12,VWS V14.01,2013-02-13 14:05:00,
2013-02-13 09:06:00,44.1,43.8,29.73,ENE,62,3.0,5.0,99,0.01,,---,0.13,VWS V14.01,2013-02-13 14:06:00,
2013-02-13 09:10:00,42.7,42.2,29.71,NW,318,1.0,4.0,98,0.02,,---,0.12,VWS V14.01,2013-02-13 14:10:00,
2013-02-13 09:11:00,44.2,43.9,29.72,North,358,1.0,3.0,99,0.02,,---,0.14,VWS V14.01,2013-02-13 14:11:00,
2013-02-13 09:15:00,42.8,42.3,29.71,NNE,18,0.0,3.0,98,0.02,,---,0.12,VWS V14.01,2013-02-13 14:15:00,
2013-02-13 09:16:00,44.3,44.0,29.72,NE,41,2.0,2.0,99,0.02,,---,0.14,VWS V14.01,2013-02-13 14:16:00,
2013-02-13 09:20:00,42.9,42.4,29.71,NNE,20,1.0,4.0,98,0.02,,---,0.12,VWS V14.01,2013-02-13 14:20:00,
2013-02-13 09:21:00,44.4,44.1,29.73,East,79,2.0,3.0,99,0.02,,---,0.14,VWS V14.01,2013-02-13 14:21:00,
2013-02-13 09:25:00,43.1,42.6,29.71,NE,37,3.0,3.0,98,0.01,,---,0.12,VWS V14.01,2013-02-13 14:25:00,
2013-02-13 09:26:00,44.4,43.9,29.73,NE,44,1.0,3.0,98,0.02,,---,0.14,VWS V14.01,2013-02-13 14:26:00,
2013-02-13 09:30:00,43.2,42.7,29.71,NNW,340,1.0,6.0,98,0.02,,---,0.13,VWS V14.01,2013-02-13 14:30:00,
2013-02-13 09:31:00,44.5,44.0,29.72,NE,34,4.0,4.0,98,0.01,,---,0.14,VWS V14.01,2013-02-13 14:31:00,
2013-02-13 09:35:00,43.3,42.8,29.72,NE,37,3.0,4.0,98,0.02,,---,0.13,VWS V14.01,2013-02-13 14:35:00,
2013-02-13 09:36:00,44.6,44.1,29.72,NNE,31,3.0,5.0,98,0.02,,---,0.15,VWS V14.01,2013-02-13 14:36:00,
2013-02-13 09:40:00,43.4,43.1,29.73,NW,320,1.0,6.0,99,0.02,,---,0.13,VWS V14.01,2013-02-13 14:40:00,
2013-02-13 09:41:00,44.7,44.2,29.72,ENE,65,2.0,3.0,98,0.02,,---,0.15,VWS V14.01,2013-02-13 14:41:00,
2013-02-13 09:45:00,43.6,43.3,29.72,NE,37,6.0,7.0,99,0.02,,---,0.13,VWS V14.01,2013-02-13 14:45:00,
2013-02-13 09:46:00,44.7,44.2,29.72,NW,323,1.0,1.0,98,0.02,,---,0.15,VWS V14.01,2013-02-13 14:46:00,
2013-02-13 09:50:00,43.7,43.4,29.72,North,4,1.0,6.0,99,0.02,,---,0.13,VWS V14.01,2013-02-13 14:50:00,
2013-02-13 09:51:00,44.8,44.3,29.72,ENE,60,5.0,5.0,98,0.02,,---,0.15,VWS V14.01,2013-02-13 14:51:00,
2013-02-13 09:55:00,43.8,43.5,29.72,NNE,25,9.0,9.0,99,0.02,,---,0.13,VWS V14.01,2013-02-13 14:55:00,
2013-02-13 09:56:00,44.8,44.3,29.73,NNE,27,5.0,6.0,98,0.02,,---,0.15,VWS V14.01,2013-02-13 14:56:00,
2013-02-13 10:00:00,43.9,43.6,29.73,NE,52,2.0,9.0,99,0.02,,---,0.13,VWS V14.01,2013-02-13 15:00:00,
2013-02-13 10:01:00,44.9,44.4,29.72,ENE,57,3.0,3.0,98,0.02,,---,0.15,VWS V14.01,2013-02-13 15:01:00,
2013-02-13 10:05:00,44.1,43.8,29.73,ENE,59,4.0,5.0,99,0.02,,---,0.13,VWS V14.01,2013-02-13 15:05:00,
2013-02-13 10:06:00,45.0,44.5,29.73,NE,55,0.0,1.0,98,0.02,,---,0.15,VWS V14.01,2013-02-13 15:06:00,
2013-02-13 10:10:00,44.1,43.8,29.72,NE,34,0.0,8.0,99,0.01,,---,0.13,VWS V14.01,2013-02-13 15:10:00,
2013-02-13 10:11:00,45.1,44.6,29.73,NNW,334,2.0,5.0,98,0.02,,---,0.15,VWS V14.01,2013-02-13 15:11:00,
2013-02-13 10:15:00,44.3,44.0,29.72,North,8,0.0,4.0,99,0.02,,---,0.14,VWS V14.01,2013-02-13 15:15:00,
2013-02-13 10:16:00,45.2,44.7,29.73,NW,325,4.0,4.0,98,0.01,,---,0.15,VWS V14.01,2013-02-13 15:16:00,
2013-02-13 10:20:00,44.4,44.1,29.72,ENE,71,2.0,7.0,99,0.02,,---,0.14,VWS V14.01,2013-02-13 15:20:00,
2013-02-13 10:21:00,45.2,44.7,29.73,NE,45,5.0,7.0,98,0.01,,---,0.15,VWS V14.01,2013-02-13 15:21:00,
2013-02-13 10:25:00,44.4,43.9,29.73,NW,322,2.0,6.0,98,0.02,,---,0.14,VWS V14.01,2013-02-13 15:25:00,
2013-02-13 10:26:00,45.5,45.2,29.73,NNW,348,3.0,8.0,99,0.01,,---,0.15,VWS V14.01,2013-02-13 15:26:00,
2013-02-13 10:30:00,44.5,44.0,29.72,NE,53,2.0,6.0,98,0.02,,---,0.14,VWS V14.01,2013-02-13 15:30:00,
2013-02-13 10:31:00,45.6,45.3,29.73,East,81,5.0,7.0,99,0.01,,---,0.15,VWS V14.01,2013-02-13 15:31:00,
2013-02-13 10:35:00,44.6,44.1,29.72,ENE,70,5.0,5.0,98,0.02,,---,0.15,VWS V14.01,2013-02-13 15:35:00,
2013-02-13 10:36:00,45.7,45.2,29.73,NE,53,3.0,3.0,98,0.00,,---,0.15,VWS V14.01,2013-02-13 15:36:00,
2013-02-13 10:40:00,44.6,44.1,29.72,NNE,23,2.0,8.0,98,0.02,,---,0.15,VWS V14.01,2013-02-13 15:40:00,
2013-02-13 10:41:00,45.9,45.4,29.73,East,90,5.0,6.0,98,0.00,,---,0.15,VWS V14.01,2013-02-13 15:41:00,
2013-02-13 10:45:00,44.7,44.2,29.72,NNE,29,1.0,6.0,98,0.02,,---,0.15,VWS V14.01,2013-02-13 15:45:00,
2013-02-13 10:46:00,46.0,45.5,29.74,NNW,338,4.0,6.0,98,0.00,,---,0.15,VWS V14.01,2013-02-13 15:46:00,
2013-02-13 10:50:00,44.8,44.3,29.72,NE,40,1.0,3.0,98,0.02,,---,0.15,VWS V14.01,2013-02-13 15:50:00,
2013-02-13 10:51:00,46.1,45.6,29.74,ENE,62,6.0,6.0,98,0.00,,---,0.15,VWS V14.01,2013-02-13 15:51:00,
2013-02-13 10:55:00,44.8,44.3,29.72,NE,53,5.0,7.0,98,0.02,,---,0.15,VWS V14.01,2013-02-13 15:55:00,
2013-02-13 10:56:00,46.2,45.4,29.74,ENE,58,3.0,6.0,97,0.00,,---,0.15,VWS V14.01,2013-02-13 15:56:00,
2013-02-13 11:00:00,44.9,44.4,29.72,ENE,70,3.0,6.0,98,0.02,,---,0.15,VWS V14.01,2013-02-13 16:00:00,
2013-02-13 11:01:00,46.4,45.3,29.75,ENE,62,4.0,4.0,96,0.00,,---,0.15,VWS V14.01,2013-02-13 16:01:00,
2013-02-13 11:05:00,45.0,44.5,29.73,NE,56,1.0,4.0,98,0.02,,---,0.15,VWS V14.01,2013-02-13 16:05:00,
2013-02-13 11:06:00,46.4,45.0,29.75,ENE,69,6.0,12.0,95,0.00,,---,0.15,VWS V14.01,2013-02-13 16:06:00,
2013-02-13 11:10:00,45.0,44.5,29.73,ENE,72,4.0,6.0,98,0.02,,---,0.15,VWS V14.01,2013-02-13 16:10:00,
2013-02-13 11:11:00,46.5,44.3,29.74,ESE,111,4.0,5.0,92,0.00,,---,0.15,VWS V14.01,2013-02-13 16:11:00,
2013-02-13 11:15:00,45.1,44.6,29.73,NNE,23,1.0,5.0,98,0.02,,---,0.15,VWS V14.01,2013-02-13 16:15:00,
2013-02-13 11:16:00,46.4,44.5,29.75,ENE,70,3.0,4.0,93,0.00,,---,0.15,VWS V14.01,2013-02-13 16:16:00,
2013-02-13 11:20:00,45.2,44.7,29.73,East,82,7.0,8.0,98,0.01,,---,0.15,VWS V14.01,2013-02-13 16:20:00,
2013-02-13 11:21:00,46.4,44.2,29.75,NNW,345,3.0,3.0,92,0.00,,---,0.15,VWS V14.01,2013-02-13 16:21:00,
2013-02-13 11:25:00,45.4,45.1,29.73,ENE,62,4.0,7.0,99,0.01,,---,0.15,VWS V14.01,2013-02-13 16:25:00,
2013-02-13 11:26:00,46.4,43.9,29.74,SE,124,7.0,10.0,91,0.00,,---,0.15,VWS V14.01,2013-02-13 16:26:00,
2013-02-13 11:30:00,45.6,45.3,29.73,East,79,5.0,8.0,99,0.01,,---,0.15,VWS V14.01,2013-02-13 16:30:00,
2013-02-13 11:31:00,46.5,43.7,29.74,NE,37,8.0,11.0,90,0.00,,---,0.15,VWS V14.01,2013-02-13 16:31:00,
2013-02-13 11:35:00,45.7,45.4,29.73,NE,34,2.0,8.0,99,0.01,,---,0.15,VWS V14.01,2013-02-13 16:35:00,
2013-02-13 11:36:00,46.8,44.0,29.74,ENE,58,10.0,10.0,90,0.00,,---,0.15,VWS V14.01,2013-02-13 16:36:00,
2013-02-13 11:40:00,45.9,45.4,29.73,ENE,59,3.0,9.0,98,0.00,,---,0.15,VWS V14.01,2013-02-13 16:40:00,
2013-02-13 11:41:00,47.0,43.9,29.74,ENE,70,6.0,10.0,89,0.00,,---,0.15,VWS V14.01,2013-02-13 16:41:00,
2013-02-13 11:45:00,45.9,45.4,29.74,NNE,25,3.0,9.0,98,0.00,,---,0.15,VWS V14.01,2013-02-13 16:45:00,
2013-02-13 11:46:00,47.0,43.0,29.75,NE,54,5.0,11.0,86,0.00,,---,0.15,VWS V14.01,2013-02-13 16:46:00,
2013-02-13 11:50:00,46.1,45.6,29.74,NE,53,3.0,6.0,98,0.00,,---,0.15,VWS V14.01,2013-02-13 16:50:00,
2013-02-13 11:51:00,47.0,43.6,29.76,NE,51,3.0,5.0,88,0.00,,---,0.15,VWS V14.01,2013-02-13 16:51:00,
2013-02-13 11:55:00,46.2,45.4,29.74,NNE,20,5.0,13.0,97,0.00,,---,0.15,VWS V14.01,2013-02-13 16:55:00,
2013-02-13 11:56:00,46.8,43.1,29.76,ENE,78,11.0,11.0,87,0.00,,---,0.15,VWS V14.01,2013-02-13 16:56:00,
2013-02-13 12:00:00,46.3,45.2,29.75,NE,53,4.0,9.0,96,0.00,,---,0.15,VWS V14.01,2013-02-13 17:00:00,
2013-02-13 12:01:00,46.7,42.7,29.75,ENE,72,6.0,12.0,86,0.00,,---,0.15,VWS V14.01,2013-02-13 17:01:00,
2013-02-13 12:05:00,46.4,45.0,29.75,ENE,62,9.0,9.0,95,0.00,,---,0.15,VWS V14.01,2013-02-13 17:05:00,
2013-02-13 12:06:00,46.6,42.3,29.76,NE,53,12.0,17.0,85,0.00,,---,0.15,VWS V14.01,2013-02-13 17:06:00,
2013-02-13 12:10:00,46.5,44.3,29.74,ESE,110,4.0,18.0,92,0.00,,---,0.15,VWS V14.01,2013-02-13 17:10:00,
2013-02-13 12:11:00,46.5,42.5,29.76,ENE,77,5.0,6.0,86,0.00,,---,0.15,VWS V14.01,2013-02-13 17:11:00,
2013-02-13 12:15:00,46.5,44.6,29.75,ENE,59,4.0,11.0,93,0.00,,---,0.15,VWS V14.01,2013-02-13 17:15:00,
2013-02-13 12:16:00,46.4,42.5,29.76,NE,52,9.0,10.0,86,0.00,,---,0.15,VWS V14.01,2013-02-13 17:16:00,
2013-02-13 12:20:00,46.4,44.2,29.74,NNW,340,1.0,9.0,92,0.00,,---,0.15,VWS V14.01,2013-02-13 17:20:00,
2013-02-13 12:21:00,46.2,42.2,29.76,ESE,123,2.0,9.0,86,0.00,,---,0.15,VWS V14.01,2013-02-13 17:21:00,
2013-02-13 12:25:00,46.4,43.9,29.74,ENE,67,5.0,15.0,91,0.00,,---,0.15,VWS V14.01,2013-02-13 17:25:00,
2013-02-13 12:26:00,46.3,42.3,29.76,East,84,2.0,6.0,86,0.00,,---,0.15,VWS V14.01,2013-02-13 17:26:00,
2013-02-13 12:30:00,46.5,44.0,29.74,NNE,26,10.0,10.0,91,0.00,,---,0.15,VWS V14.01,2013-02-13 17:30:00,
2013-02-13 12:31:00,46.3,42.3,29.76,ENE,58,7.0,9.0,86,0.00,,---,0.15,VWS V14.01,2013-02-13 17:31:00,
2013-02-13 12:35:00,46.7,43.6,29.74,East,83,4.0,12.0,89,0.00,,---,0.15,VWS V14.01,2013-02-13 17:35:00,
2013-02-13 12:36:00,46.3,42.3,29.76,East,79,4.0,5.0,86,0.00,,---,0.15,VWS V14.01,2013-02-13 17:36:00,
2013-02-13 12:40:00,47.0,44.2,29.74,NNW,334,8.0,10.0,90,0.00,,---,0.15,VWS V14.01,2013-02-13 17:40:00,
2013-02-13 12:41:00,46.2,42.2,29.76,SE,138,9.0,9.0,86,0.00,,---,0.15,VWS V14.01,2013-02-13 17:41:00,
2013-02-13 12:45:00,47.0,43.0,29.75,ENE,67,9.0,25.0,86,0.00,,---,0.15,VWS V14.01,2013-02-13 17:45:00,
2013-02-13 12:46:00,46.1,42.5,29.76,NE,50,3.0,5.0,87,0.00,,---,0.15,VWS V14.01,2013-02-13 17:46:00,
2013-02-13 12:50:00,47.0,43.6,29.76,NNE,30,1.0,11.0,88,0.00,,---,0.15,VWS V14.01,2013-02-13 17:50:00,
2013-02-13 12:51:00,46.0,42.3,29.76,ENE,73,1.0,1.0,87,0.00,,---,0.15,VWS V14.01,2013-02-13 17:51:00,
2013-02-13 12:55:00,46.8,43.1,29.75,North,1,1.0,11.0,87,0.00,,---,0.15,VWS V14.01,2013-02-13 17:55:00,
2013-02-13 12:56:00,46.0,42.3,29.76,NE,50,2.0,3.0,87,0.00,,---,0.15,VWS V14.01,2013-02-13 17:56:00,
2013-02-13 13:00:00,46.7,42.7,29.75,East,82,2.0,13.0,86,0.00,,---,0.15,VWS V14.01,2013-02-13 18:00:00,
2013-02-13 13:01:00,45.9,42.5,29.76,NNW,344,1.0,2.0,88,0.00,,---,0.15,VWS V14.01,2013-02-13 18:01:00,
2013-02-13 13:05:00,46.6,42.6,29.76,NNE,18,5.0,14.0,86,0.00,,---,0.15,VWS V14.01,2013-02-13 18:05:00,
2013-02-13 13:07:00,45.9,42.5,29.77,ESE,103,2.0,7.0,88,0.00,,---,0.15,VWS V14.01,2013-02-13 18:07:00,
2013-02-13 13:10:00,46.5,42.5,29.76,ENE,63,6.0,17.0,86,0.00,,---,0.15,VWS V14.01,2013-02-13 18:10:00,
2013-02-13 13:12:00,45.8,42.5,29.77,East,87,2.0,7.0,88,0.00,,---,0.15,VWS V14.01,2013-02-13 18:12:00,
2013-02-13 13:15:00,46.4,42.5,29.76,ENE,72,4.0,16.0,86,0.00,,---,0.15,VWS V14.01,2013-02-13 18:15:00,
2013-02-13 13:17:00,45.9,42.8,29.77,NE,49,0.0,1.0,89,0.00,,---,0.15,VWS V14.01,2013-02-13 18:17:00,
2013-02-13 13:20:00,46.3,42.7,29.76,ENE,76,8.0,12.0,87,0.00,,---,0.15,VWS V14.01,2013-02-13 18:20:00,
2013-02-13 13:22:00,46.1,42.5,29.77,ENE,70,2.0,4.0,87,0.00,,---,0.15,VWS V14.01,2013-02-13 18:22:00,
2013-02-13 13:25:00,46.3,42.3,29.76,ENE,75,5.0,9.0,86,0.00,,---,0.15,VWS V14.01,2013-02-13 18:25:00,
2013-02-13 13:27:00,46.5,42.5,29.76,NNW,339,2.0,7.0,86,0.00,,---,0.15,VWS V14.01,2013-02-13 18:27:00,
2013-02-13 13:30:00,46.3,42.3,29.76,East,87,9.0,11.0,86,0.00,,---,0.15,VWS V14.01,2013-02-13 18:30:00,
2013-02-13 13:32:00,46.8,41.9,29.76,ENE,60,2.0,7.0,83,0.00,,---,0.15,VWS V14.01,2013-02-13 18:32:00,
2013-02-13 13:35:00,46.3,42.3,29.76,ENE,68,3.0,12.0,86,0.00,,---,0.15,VWS V14.01,2013-02-13 18:35:00,
2013-02-13 13:37:00,47.0,41.8,29.77,East,89,4.0,12.0,82,0.00,,---,0.15,VWS V14.01,2013-02-13 18:37:00,
2013-02-13 13:40:00,46.2,42.2,29.76,SSE,166,3.0,8.0,86,0.00,,---,0.15,VWS V14.01,2013-02-13 18:40:00,
2013-02-13 13:42:00,47.2,41.7,29.76,ENE,65,2.0,4.0,81,0.00,,---,0.15,VWS V14.01,2013-02-13 18:42:00,
2013-02-13 13:45:00,46.1,42.5,29.76,East,85,2.0,9.0,87,0.00,,---,0.15,VWS V14.01,2013-02-13 18:45:00,
2013-02-13 13:47:00,47.9,42.7,29.76,NE,51,4.0,4.0,82,0.00,,---,0.15,VWS V14.01,2013-02-13 18:47:00,
2013-02-13 13:50:00,46.0,42.3,29.76,ENE,77,1.0,5.0,87,0.00,,---,0.15,VWS V14.01,2013-02-13 18:50:00,
2013-02-13 13:52:00,48.5,41.3,29.76,ESE,113,6.0,11.0,76,0.00,,---,0.15,VWS V14.01,2013-02-13 18:52:00,
2013-02-13 13:55:00,46.0,42.3,29.76,ENE,59,3.0,6.0,87,0.00,,---,0.15,VWS V14.01,2013-02-13 18:55:00,
2013-02-13 13:57:00,48.4,41.2,29.77,ENE,73,6.0,6.0,76,0.00,,---,0.15,VWS V14.01,2013-02-13 18:57:00,
2013-02-13 14:00:00,45.9,42.5,29.76,NNW,341,1.0,5.0,88,0.00,,---,0.15,VWS V14.01,2013-02-13 19:00:00,
2013-02-13 14:02:00,48.4,41.5,29.78,East,90,4.0,5.0,77,0.00,,---,0.15,VWS V14.01,2013-02-13 19:02:00,
2013-02-13 14:05:00,45.9,42.5,29.77,East,89,2.0,8.0,88,0.00,,---,0.15,VWS V14.01,2013-02-13 19:05:00,
2013-02-13 14:07:00,48.2,40.7,29.78,SE,127,1.0,15.0,75,0.00,,---,0.15,VWS V14.01,2013-02-13 19:07:00,
2013-02-13 14:10:00,45.8,42.5,29.77,SE,129,1.0,7.0,88,0.00,,---,0.15,VWS V14.01,2013-02-13 19:10:00,
2013-02-13 14:12:00,47.6,39.7,29.78,ESE,108,8.0,13.0,74,0.00,,---,0.15,VWS V14.01,2013-02-13 19:12:00,
2013-02-13 14:15:00,45.9,42.8,29.77,NE,49,1.0,7.0,89,0.00,,---,0.15,VWS V14.01,2013-02-13 19:15:00,
2013-02-13 14:17:00,47.3,40.5,29.78,East,95,9.0,16.0,77,0.00,,---,0.15,VWS V14.01,2013-02-13 19:17:00,
2013-02-13 14:20:00,46.1,42.5,29.77,East,95,2.0,7.0,87,0.00,,---,0.15,VWS V14.01,2013-02-13 19:20:00,
2013-02-13 14:22:00,46.9,39.7,29.79,NW,307,1.0,5.0,76,0.00,,---,0.15,VWS V14.01,2013-02-13 19:22:00,
2013-02-13 14:25:00,46.4,42.8,29.76,ESE,116,4.0,8.0,87,0.00,,---,0.15,VWS V14.01,2013-02-13 19:25:00,
2013-02-13 14:27:00,46.1,39.3,29.80,South,176,5.0,12.0,77,0.00,,---,0.15,VWS V14.01,2013-02-13 19:27:00,
2013-02-13 14:30:00,46.7,41.8,29.76,NE,39,7.0,14.0,83,0.00,,---,0.15,VWS V14.01,2013-02-13 19:30:00,
2013-02-13 14:32:00,45.4,38.3,29.80,WSW,250,0.0,12.0,76,0.00,,---,0.15,VWS V14.01,2013-02-13 19:32:00,
2013-02-13 14:35:00,46.9,42.0,29.77,East,79,11.0,11.0,83,0.00,,---,0.15,VWS V14.01,2013-02-13 19:35:00,
2013-02-13 14:37:00,45.0,37.9,29.80,ENE,60,3.0,13.0,76,0.00,,---,0.15,VWS V14.01,2013-02-13 19:37:00,
2013-02-13 14:40:00,47.2,41.3,29.76,NW,323,2.0,12.0,80,0.00,,---,0.15,VWS V14.01,2013-02-13 19:40:00,
2013-02-13 14:42:00,44.7,37.6,29.80,SSE,160,7.0,10.0,76,0.00,,---,0.15,VWS V14.01,2013-02-13 19:42:00,
2013-02-13 14:45:00,47.7,41.8,29.76,NW,326,3.0,9.0,80,0.00,,---,0.15,VWS V14.01,2013-02-13 19:45:00,
2013-02-13 14:47:00,44.6,37.8,29.80,SW,218,6.0,6.0,77,0.00,,---,0.15,VWS V14.01,2013-02-13 19:47:00,
2013-02-13 14:50:00,48.5,42.0,29.76,NE,41,7.0,10.0,78,0.00,,---,0.15,VWS V14.01,2013-02-13 19:50:00,
2013-02-13 14:52:00,44.6,37.8,29.79,ENE,78,6.0,7.0,77,0.00,,---,0.15,VWS V14.01,2013-02-13 19:52:00,
2013-02-13 14:55:00,48.5,41.3,29.77,NE,37,1.0,11.0,76,0.00,,---,0.15,VWS V14.01,2013-02-13 19:55:00,
2013-02-13 14:57:00,44.4,37.7,29.79,East,90,3.0,7.0,77,0.00,,---,0.15,VWS V14.01,2013-02-13 19:57:00,
2013-02-13 15:00:00,48.4,41.2,29.77,NE,53,0.0,10.0,76,0.00,,---,0.15,VWS V14.01,2013-02-13 20:00:00,
2013-02-13 15:02:00,44.3,37.9,29.80,ENE,67,5.0,6.0,78,0.00,,---,0.15,VWS V14.01,2013-02-13 20:02:00,
2013-02-13 15:05:00,48.3,41.1,29.77,NE,44,2.0,7.0,76,0.00,,---,0.15,VWS V14.01,2013-02-13 20:05:00,
2013-02-13 15:07:00,44.3,38.2,29.80,WNW,287,0.0,0.0,79,0.00,,---,0.15,VWS V14.01,2013-02-13 20:07:00,
2013-02-13 15:10:00,47.8,40.3,29.78,ESE,107,7.0,15.0,75,0.00,,---,0.15,VWS V14.01,2013-02-13 20:10:00,
2013-02-13 15:12:00,44.3,37.9,29.80,SSE,162,0.0,1.0,78,0.00,,---,0.15,VWS V14.01,2013-02-13 20:12:00,
2013-02-13 15:15:00,47.3,40.1,29.78,ESE,119,6.0,13.0,76,0.00,,---,0.15,VWS V14.01,2013-02-13 20:15:00,
2013-02-13 15:17:00,44.3,37.9,29.81,SW,215,0.0,4.0,78,0.00,,---,0.15,VWS V14.01,2013-02-13 20:17:00,
2013-02-13 15:20:00,47.0,39.8,29.79,SE,141,1.0,16.0,76,0.00,,---,0.15,VWS V14.01,2013-02-13 20:20:00,
2013-02-13 15:22:00,44.1,37.7,29.82,SSW,195,2.0,7.0,78,0.00,,---,0.15,VWS V14.01,2013-02-13 20:22:00,
2013-02-13 15:25:00,46.3,39.2,29.79,SE,136,1.0,13.0,76,0.00,,---,0.15,VWS V14.01,2013-02-13 20:25:00,
2013-02-13 15:27:00,43.6,37.5,29.82,ESE,104,1.0,8.0,79,0.00,,---,0.15,VWS V14.01,2013-02-13 20:27:00,
2013-02-13 15:30:00,45.6,38.2,29.80,ESE,105,12.0,12.0,75,0.00,,---,0.15,VWS V14.01,2013-02-13 20:30:00,
2013-02-13 15:32:00,43.2,37.8,29.83,WSW,238,1.0,5.0,81,0.00,,---,0.15,VWS V14.01,2013-02-13 20:32:00,
2013-02-13 15:35:00,45.1,38.0,29.80,East,89,6.0,14.0,76,0.00,,---,0.15,VWS V14.01,2013-02-13 20:35:00,
2013-02-13 15:37:00,43.1,37.4,29.83,SE,137,1.0,6.0,80,0.00,,---,0.15,VWS V14.01,2013-02-13 20:37:00,
2013-02-13 15:40:00,44.7,37.6,29.80,East,82,1.0,13.0,76,0.00,,---,0.15,VWS V14.01,2013-02-13 20:40:00,
2013-02-13 15:42:00,42.8,37.1,29.84,West,267,3.0,8.0,80,0.00,,---,0.15,VWS V14.01,2013-02-13 20:42:00,
2013-02-13 15:45:00,44.6,37.8,29.80,SSE,147,3.0,12.0,77,0.00,,---,0.15,VWS V14.01,2013-02-13 20:45:00,
2013-02-13 15:47:00,42.5,37.1,29.84,South,181,2.0,9.0,81,0.00,,---,0.15,VWS V14.01,2013-02-13 20:47:00,
2013-02-13 15:50:00,44.6,37.8,29.80,East,94,0.0,6.0,77,0.00,,---,0.15,VWS V14.01,2013-02-13 20:50:00,
2013-02-13 15:52:00,42.2,36.8,29.84,SE,140,1.0,4.0,81,0.00,,---,0.15,VWS V14.01,2013-02-13 20:52:00,
2013-02-13 15:55:00,44.5,37.8,29.79,East,96,3.0,7.0,77,0.00,,---,0.15,VWS V14.01,2013-02-13 20:55:00,
2013-02-13 15:57:00,42.0,36.6,29.85,East,96,7.0,7.0,81,0.00,,---,0.15,VWS V14.01,2013-02-13 20:57:00,
2013-02-13 16:00:00,44.3,37.6,29.80,East,97,2.0,7.0,77,0.00,,---,0.15,VWS V14.01,2013-02-13 21:00:00,
2013-02-13 16:02:00,41.7,36.3,29.85,SW,229,0.0,7.0,81,0.00,,---,0.15,VWS V14.01,2013-02-13 21:02:00,
2013-02-13 16:05:00,44.3,37.9,29.80,WNW,287,0.0,7.0,78,0.00,,---,0.15,VWS V14.01,2013-02-13 21:05:00,
2013-02-13 16:07:00,41.4,36.0,29.86,SW,217,1.0,3.0,81,0.00,,---,0.15,VWS V14.01,2013-02-13 21:07:00,
2013-02-13 16:10:00,44.3,37.6,29.80,East,94,0.0,3.0,77,0.00,,---,0.15,VWS V14.01,2013-02-13 21:10:00,
2013-02-13 16:12:00,41.3,36.2,29.86,SSW,201,2.0,2.0,82,0.00,,---,0.15,VWS V14.01,2013-02-13 21:12:00,
2013-02-13 16:15:00,44.3,37.6,29.81,SE,127,3.0,5.0,77,0.00,,---,0.15,VWS V14.01,2013-02-13 21:15:00,
2013-02-13 16:17:00,41.2,35.8,29.87,SSE,153,4.0,17.0,81,0.00,,---,0.15,VWS V14.01,2013-02-13 21:17:00,
2013-02-13 16:20:00,44.2,37.8,29.81,ESE,120,3.0,4.0,78,0.00,,---,0.15,VWS V14.01,2013-02-13 21:20:00,
2013-02-13 16:22:00,41.0,35.9,29.87,SE,143,2.0,2.0,82,0.00,,---,0.15,VWS V14.01,2013-02-13 21:22:00,
2013-02-13 16:25:00,43.8,38.0,29.82,East,95,7.0,10.0,80,0.00,,---,0.15,VWS V14.01,2013-02-13 21:25:00,
2013-02-13 16:27:00,40.7,36.0,29.88,ENE,73,7.0,7.0,83,0.00,,---,0.15,VWS V14.01,2013-02-13 21:27:00,
2013-02-13 16:30:00,43.3,37.9,29.82,WNW,288,1.0,8.0,81,0.00,,---,0.15,VWS V14.01,2013-02-13 21:30:00,
2013-02-13 16:32:00,40.5,35.8,29.88,East,98,3.0,14.0,83,0.00,,---,0.15,VWS V14.01,2013-02-13 21:32:00,
2013-02-13 16:35:00,43.2,37.5,29.83,ESE,103,4.0,8.0,80,0.00,,---,0.15,VWS V14.01,2013-02-13 21:35:00,
2013-02-13 16:37:00,40.3,35.9,29.88,ESE,122,3.0,7.0,84,0.00,,---,0.15,VWS V14.01,2013-02-13 21:37:00,
2013-02-13 16:40:00,42.9,37.2,29.84,ESE,109,5.0,8.0,80,0.00,,---,0.15,VWS V14.01,2013-02-13 21:40:00,
2013-02-13 16:42:00,40.2,36.1,29.88,ESE,118,3.0,7.0,85,0.00,,---,0.15,VWS V14.01,2013-02-13 21:42:00,
2013-02-13 16:45:00,42.5,36.8,29.84,SSE,151,1.0,11.0,80,0.00,,---,0.15,VWS V14.01,2013-02-13 21:45:00,
2013-02-13 16:47:00,40.1,35.7,29.88,SW,222,7.0,7.0,84,0.00,,---,0.15,VWS V14.01,2013-02-13 21:47:00,
2013-02-13 16:50:00,42.3,36.9,29.84,SW,229,1.0,9.0,81,0.00,,---,0.15,VWS V14.01,2013-02-13 21:50:00,
2013-02-13 16:52:00,40.1,35.7,29.89,SSE,162,2.0,3.0,84,0.00,,---,0.15,VWS V14.01,2013-02-13 21:52:00,
2013-02-13 16:55:00,42.0,36.3,29.85,South,188,0.0,14.0,80,0.00,,---,0.15,VWS V14.01,2013-02-13 21:55:00,
2013-02-13 16:57:00,40.0,35.6,29.89,SW,217,2.0,6.0,84,0.00,,---,0.15,VWS V14.01,2013-02-13 21:57:00,
2013-02-13 17:00:00,41.8,36.4,29.85,SSW,193,5.0,7.0,81,0.00,,---,0.15,VWS V14.01,2013-02-13 22:00:00,
2013-02-13 17:02:00,40.0,35.6,29.89,East,82,2.0,5.0,84,0.00,,---,0.15,VWS V14.01,2013-02-13 22:02:00,
2013-02-13 17:05:00,41.5,36.1,29.86,SE,130,2.0,8.0,81,0.00,,---,0.15,VWS V14.01,2013-02-13 22:05:00,
2013-02-13 17:07:00,40.0,35.6,29.89,SE,131,1.0,6.0,84,0.00,,---,0.15,VWS V14.01,2013-02-13 22:07:00,
2013-02-13 17:10:00,41.4,36.3,29.86,NE,45,0.0,3.0,82,0.00,,---,0.15,VWS V14.01,2013-02-13 22:10:00,
2013-02-13 17:12:00,40.1,35.7,29.90,SW,214,1.0,2.0,84,0.00,,---,0.15,VWS V14.01,2013-02-13 22:12:00,
2013-02-13 17:15:00,41.3,36.2,29.87,SE,131,1.0,3.0,82,0.00,,---,0.15,VWS V14.01,2013-02-13 22:15:00,
2013-02-13 17:17:00,40.1,35.7,29.89,ENE,66,2.0,3.0,84,0.00,,---,0.15,VWS V14.01,2013-02-13 22:17:00,
2013-02-13 17:20:00,41.1,36.0,29.87,SSW,205,1.0,17.0,82,0.00,,---,0.15,VWS V14.01,2013-02-13 22:20:00,
2013-02-13 17:22:00,40.2,35.8,29.89,East,87,1.0,2.0,84,0.00,,---,0.15,VWS V14.01,2013-02-13 22:22:00,
2013-02-13 17:25:00,40.8,35.7,29.88,SW,236,2.0,10.0,82,0.00,,---,0.15,VWS V14.01,2013-02-13 22:25:00,
2013-02-13 17:27:00,40.3,35.9,29.90,SE,145,0.0,4.0,84,0.00,,---,0.15,VWS V14.01,2013-02-13 22:27:00,
2013-02-13 17:30:00,40.5,35.8,29.88,WSW,248,1.0,10.0,83,0.00,,---,0.15,VWS V14.01,2013-02-13 22:30:00,
2013-02-13 17:32:00,40.3,35.6,29.90,SW,222,0.0,2.0,83,0.00,,---,0.15,VWS V14.01,2013-02-13 22:32:00,
2013-02-13 17:35:00,40.4,36.0,29.88,ENE,72,2.0,14.0,84,0.00,,---,0.15,VWS V14.01,2013-02-13 22:35:00,
2013-02-13 17:37:00,40.4,35.3,29.90,South,174,0.0,5.0,82,0.00,,---,0.15,VWS V14.01,2013-02-13 22:37:00,
2013-02-13 17:40:00,40.2,35.8,29.88,ESE,116,7.0,8.0,84,0.00,,---,0.15,VWS V14.01,2013-02-13 22:40:00,
2013-02-13 17:42:00,40.4,35.7,29.90,SW,236,0.0,1.0,83,0.00,,---,0.15,VWS V14.01,2013-02-13 22:42:00,
2013-02-13 17:45:00,40.2,36.1,29.89,SW,217,2.0,7.0,85,0.00,,---,0.15,VWS V14.01,2013-02-13 22:45:00,
2013-02-13 17:47:00,40.4,35.3,29.90,WSW,240,2.0,3.0,82,0.00,,---,0.15,VWS V14.01,2013-02-13 22:47:00,
2013-02-13 17:50:00,40.1,35.7,29.89,SE,124,1.0,8.0,84,0.00,,---,0.15,VWS V14.01,2013-02-13 22:50:00,
2013-02-13 17:52:00,40.5,35.1,29.90,ENE,69,0.0,5.0,81,0.00,,---,0.15,VWS V14.01,2013-02-13 22:52:00,
2013-02-13 17:55:00,40.1,35.7,29.89,SW,225,1.0,6.0,84,0.00,,---,0.15,VWS V14.01,2013-02-13 22:55:00,
2013-02-13 17:57:00,40.5,35.1,29.90,ENE,78,1.0,2.0,81,0.00,,---,0.15,VWS V14.01,2013-02-13 22:57:00,
2013-02-13 18:00:00,40.0,35.6,29.89,WSW,242,2.0,10.0,84,0.00,,---,0.15,VWS V14.01,2013-02-13 23:00:00,
2013-02-13 18:02:00,40.6,35.5,29.91,SSW,211,0.0,1.0,82,0.00,,---,0.15,VWS V14.01,2013-02-13 23:02:00,
2013-02-13 18:05:00,40.0,35.6,29.89,SW,217,2.0,5.0,84,0.00,,---,0.15,VWS V14.01,2013-02-13 23:05:00,
2013-02-13 18:07:00,40.5,35.1,29.92,East,97,1.0,2.0,81,0.00,,---,0.15,VWS V14.01,2013-02-13 23:07:00,
2013-02-13 18:10:00,40.0,35.6,29.90,East,80,1.0,6.0,84,0.00,,---,0.15,VWS V14.01,2013-02-13 23:10:00,
2013-02-13 18:13:00,40.5,35.1,29.92,South,176,1.0,4.0,81,0.00,,---,0.15,VWS V14.01,2013-02-13 23:13:00,
2013-02-13 18:15:00,40.1,35.7,29.89,ENE,75,2.0,3.0,84,0.00,,---,0.15,VWS V14.01,2013-02-13 23:15:00,
2013-02-13 18:18:00,40.6,35.5,29.92,SSW,200,2.0,3.0,82,0.00,,---,0.15,VWS V14.01,2013-02-13 23:18:00,
2013-02-13 18:20:00,40.1,35.7,29.90,ESE,104,2.0,3.0,84,0.00,,---,0.15,VWS V14.01,2013-02-13 23:20:00,
2013-02-13 18:22:00,40.6,35.2,29.92,ENE,78,1.0,2.0,81,0.00,,---,0.15,VWS V14.01,2013-02-13 23:22:00,
2013-02-13 18:25:00,40.2,35.8,29.89,ENE,72,0.0,4.0,84,0.00,,---,0.15,VWS V14.01,2013-02-13 23:25:00,
2013-02-13 18:28:00,40.6,35.2,29.92,SSE,166,0.0,2.0,81,0.00,,---,0.15,VWS V14.01,2013-02-13 23:28:00,
2013-02-13 18:30:00,40.3,35.6,29.89,East,100,2.0,4.0,83,0.00,,---,0.15,VWS V14.01,2013-02-13 23:30:00,
2013-02-13 18:33:00,40.5,35.1,29.93,ESE,116,0.0,1.0,81,0.00,,---,0.15,VWS V14.01,2013-02-13 23:33:00,
2013-02-13 18:35:00,40.4,35.7,29.90,ESE,111,1.0,4.0,83,0.00,,---,0.15,VWS V14.01,2013-02-13 23:35:00,
2013-02-13 18:38:00,40.5,35.1,29.93,ESE,117,0.0,0.0,81,0.00,,---,0.15,VWS V14.01,2013-02-13 23:38:00,
2013-02-13 18:40:00,40.4,35.3,29.90,SW,236,0.0,5.0,82,0.00,,---,0.15,VWS V14.01,2013-02-13 23:40:00,
2013-02-13 18:43:00,40.4,34.7,29.93,SSW,193,1.0,2.0,80,0.00,,---,0.15,VWS V14.01,2013-02-13 23:43:00,
2013-02-13 18:45:00,40.4,35.3,29.90,SW,228,0.0,4.0,82,0.00,,---,0.15,VWS V14.01,2013-02-13 23:45:00,
2013-02-13 18:48:00,40.4,34.7,29.93,SSW,203,0.0,2.0,80,0.00,,---,0.15,VWS V14.01,2013-02-13 23:48:00,
2013-02-13 18:50:00,40.4,35.0,29.90,South,180,1.0,3.0,81,0.00,,---,0.15,VWS V14.01,2013-02-13 23:50:00,
2013-02-13 18:53:00,40.4,34.7,29.93,SSW,205,0.0,0.0,80,0.00,,---,0.15,VWS V14.01,2013-02-13 23:53:00,
2013-02-13 18:55:00,40.5,35.1,29.90,SE,135,0.0,5.0,81,0.00,,---,0.15,VWS V14.01,2013-02-13 23:55:00,
2013-02-13 18:58:00,40.4,34.7,29.94,East,79,2.0,2.0,80,0.00,,---,0.15,VWS V14.01,2013-02-13 23:58:00,
2013-02-13 19:00:00,40.6,35.5,29.91,SSW,211,0.0,2.0,82,0.00,,---,0.15,VWS V14.01,2013-02-14 00:00:00,
2013-02-13 19:03:00,40.4,34.7,29.94,East,98,0.0,0.0,80,0.00,,---,0.15,VWS V14.01,2013-02-14 00:03:00,
2013-02-13 19:05:00,40.5,35.1,29.92,SE,144,1.0,1.0,81,0.00,,---,0.15,VWS V14.01,2013-02-14 00:05:00,
2013-02-13 19:08:00,40.4,35.0,29.94,SSW,207,0.0,1.0,81,0.00,,---,0.15,VWS V14.01,2013-02-14 00:08:00,
2013-02-13 19:10:00,40.5,35.5,29.92,SE,146,1.0,2.0,82,0.00,,---,0.15,VWS V14.01,2013-02-14 00:10:00,
2013-02-13 19:13:00,40.3,34.6,29.94,SE,130,0.0,2.0,80,0.00,,---,0.15,VWS V14.01,2013-02-14 00:13:00,
2013-02-13 19:15:00,40.5,35.5,29.92,South,177,0.0,4.0,82,0.00,,---,0.15,VWS V14.01,2013-02-14 00:15:00,
2013-02-13 19:18:00,40.3,34.9,29.94,SE,130,0.0,0.0,81,0.00,,---,0.15,VWS V14.01,2013-02-14 00:18:00,
2013-02-13 19:20:00,40.6,35.2,29.92,SE,146,1.0,3.0,81,0.00,,---,0.15,VWS V14.01,2013-02-14 00:20:00,
2013-02-13 19:23:00,40.3,34.6,29.94,SE,129,0.0,1.0,80,0.00,,---,0.15,VWS V14.01,2013-02-14 00:23:00,
2013-02-13 19:25:00,40.5,35.1,29.92,South,188,0.0,4.0,81,0.00,,---,0.15,VWS V14.01,2013-02-14 00:25:00,
2013-02-13 19:28:00,40.3,34.9,29.94,SE,130,0.0,0.0,81,0.00,,---,0.15,VWS V14.01,2013-02-14 00:28:00,
2013-02-13 19:30:00,40.6,35.2,29.93,ESE,115,0.0,2.0,81,0.00,,---,0.15,VWS V14.01,2013-02-14 00:30:00,
2013-02-13 19:33:00,40.2,34.5,29.94,SE,131,0.0,1.0,80,0.00,,---,0.15,VWS V14.01,2013-02-14 00:33:00,
2013-02-13 19:35:00,40.5,35.1,29.93,ESE,117,0.0,1.0,81,0.00,,---,0.15,VWS V14.01,2013-02-14 00:35:00,
2013-02-13 19:38:00,40.2,34.5,29.94,SE,131,0.0,0.0,80,0.00,,---,0.15,VWS V14.01,2013-02-14 00:38:00,
2013-02-13 19:40:00,40.4,35.0,29.93,ESE,115,0.0,1.0,81,0.00,,---,0.15,VWS V14.01,2013-02-14 00:40:00,
2013-02-13 19:43:00,40.1,34.8,29.94,SE,131,0.0,1.0,81,0.00,,---,0.15,VWS V14.01,2013-02-14 00:43:00,
2013-02-13 19:45:00,40.4,35.0,29.93,ENE,67,1.0,2.0,81,0.00,,---,0.15,VWS V14.01,2013-02-14 00:45:00,
2013-02-13 19:48:00,40.1,34.8,29.95,SE,131,0.0,0.0,81,0.00,,---,0.15,VWS V14.01,2013-02-14 00:48:00,
2013-02-13 19:50:00,40.4,34.7,29.93,SSW,203,0.0,2.0,80,0.00,,---,0.15,VWS V14.01,2013-02-14 00:50:00,
2013-02-13 19:53:00,40.0,35.0,29.94,SE,131,0.0,0.0,82,0.00,,---,0.15,VWS V14.01,2013-02-14 00:53:00,
2013-02-13 19:55:00,40.4,34.7,29.93,SSW,204,0.0,0.0,80,0.00,,---,0.15,VWS V14.01,2013-02-14 00:55:00,
2013-02-13 19:58:00,40.0,35.6,29.94,SE,131,0.0,0.0,84,0.00,,---,0.15,VWS V14.01,2013-02-14 00:58:00,
2013-02-13 20:00:00,40.4,34.7,29.94,East,98,0.0,2.0,80,0.00,,---,0.15,VWS V14.01,2013-02-14 01:00:00,
2013-02-13 20:03:00,39.8,35.4,29.94,SE,131,0.0,0.0,84,0.00,,---,0.15,VWS V14.01,2013-02-14 01:03:00,
2013-02-13 20:05:00,40.4,34.7,29.94,ESE,108,0.0,2.0,80,0.00,,---,0.15,VWS V14.01,2013-02-14 01:05:00,
2013-02-13 20:08:00,39.7,35.6,29.95,SE,131,0.0,0.0,85,0.00,,---,0.15,VWS V14.01,2013-02-14 01:08:00,
2013-02-13 20:10:00,40.3,35.2,29.94,East,86,0.0,2.0,82,0.00,,---,0.15,VWS V14.01,2013-02-14 01:10:00,
2013-02-13 20:13:00,39.5,35.1,29.95,SE,131,0.0,0.0,84,0.00,,---,0.15,VWS V14.01,2013-02-14 01:13:00,
2013-02-13 20:15:00,40.3,34.6,29.94,SE,129,0.0,2.0,80,0.00,,---,0.15,VWS V14.01,2013-02-14 01:15:00,
2013-02-13 20:18:00,39.4,35.3,29.95,SE,131,0.0,0.0,85,0.00,,---,0.15,VWS V14.01,2013-02-14 01:18:00,
2013-02-13 20:20:00,40.3,34.6,29.94,SE,129,1.0,1.0,80,0.00,,---,0.15,VWS V14.01,2013-02-14 01:20:00,
2013-02-13 20:23:00,39.4,35.3,29.95,SE,131,0.0,0.0,85,0.00,,---,0.15,VWS V14.01,2013-02-14 01:23:00,
2013-02-13 20:25:00,40.3,34.6,29.94,SE,130,0.0,1.0,80,0.00,,---,0.15,VWS V14.01,2013-02-14 01:25:00,
2013-02-13 20:28:00,39.4,36.2,29.95,SE,131,0.0,0.0,88,0.00,,---,0.15,VWS V14.01,2013-02-14 01:28:00,
2013-02-13 20:30:00,40.2,34.5,29.94,SE,130,0.0,1.0,80,0.00,,---,0.15,VWS V14.01,2013-02-14 01:30:00,
2013-02-13 20:33:00,39.3,35.8,29.95,SSW,210,1.0,1.0,87,0.00,,---,0.15,VWS V14.01,2013-02-14 01:33:00,
2013-02-13 20:35:00,40.2,34.5,29.94,SE,131,0.0,1.0,80,0.00,,---,0.15,VWS V14.01,2013-02-14 01:35:00,
2013-02-13 20:38:00,39.4,35.6,29.96,SSW,210,0.0,0.0,86,0.00,,---,0.15,VWS V14.01,2013-02-14 01:38:00,
2013-02-13 20:40:00,40.1,34.4,29.94,SE,131,0.0,0.0,80,0.00,,---,0.15,VWS V14.01,2013-02-14 01:40:00,
2013-02-13 20:43:00,39.4,35.9,29.96,SSW,210,0.0,0.0,87,0.00,,---,0.15,VWS V14.01,2013-02-14 01:43:00,
2013-02-13 20:45:00,40.1,34.8,29.94,SE,131,0.0,1.0,81,0.00,,---,0.15,VWS V14.01,2013-02-14 01:45:00,
2013-02-13 20:48:00,39.4,35.6,29.96,SSW,210,0.0,0.0,86,0.00,,---,0.15,VWS V14.01,2013-02-14 01:48:00,
2013-02-13 20:50:00,40.1,35.1,29.95,SE,131,0.0,0.0,82,0.00,,---,0.15,VWS V14.01,2013-02-14 01:50:00,
2013-02-13 20:53:00,39.4,35.3,29.96,SSW,210,0.0,0.0,85,0.00,,---,0.15,VWS V14.01,2013-02-14 01:53:00,
2013-02-13 20:55:00,40.0,35.3,29.94,SE,131,0.0,0.0,83,0.00,,---,0.15,VWS V14.01,2013-02-14 01:55:00,
2013-02-13 20:58:00,39.4,35.0,29.96,SSW,210,0.0,0.0,84,0.00,,---,0.15,VWS V14.01,2013-02-14 01:58:00,
2013-02-13 21:00:00,39.9,35.5,29.94,SE,131,0.0,0.0,84,0.00,,---,0.15,VWS V14.01,2013-02-14 02:00:00,
2013-02-13 21:03:00,39.5,35.4,29.97,SSW,210,0.0,0.0,85,0.00,,---,0.15,VWS V14.01,2013-02-14 02:03:00,
2013-02-13 21:05:00,39.7,35.3,29.94,SE,131,0.0,0.0,84,0.00,,---,0.15,VWS V14.01,2013-02-14 02:05:00,
2013-02-13 21:08:00,39.5,35.7,29.96,SSW,210,0.0,0.0,86,0.00,,---,0.15,VWS V14.01,2013-02-14 02:08:00,
2013-02-13 21:10:00,39.6,35.2,29.95,SE,131,0.0,0.0,84,0.00,,---,0.15,VWS V14.01,2013-02-14 02:10:00,
2013-02-13 21:14:00,39.5,35.7,29.97,SSW,210,0.0,0.0,86,0.00,,---,0.15,VWS V14.01,2013-02-14 02:14:00,
2013-02-13 21:15:00,39.5,35.4,29.95,SE,131,0.0,0.0,85,0.00,,---,0.15,VWS V14.01,2013-02-14 02:15:00,
2013-02-13 21:19:00,39.4,35.9,29.97,SSW,210,0.0,0.0,87,0.00,,---,0.15,VWS V14.01,2013-02-14 02:19:00,
2013-02-13 21:20:00,39.4,35.0,29.95,SE,131,0.0,0.0,84,0.00,,---,0.15,VWS V14.01,2013-02-14 02:20:00,
2013-02-13 21:24:00,39.3,35.2,29.97,SSW,210,0.0,0.0,85,0.00,,---,0.15,VWS V14.01,2013-02-14 02:24:00,
2013-02-13 21:25:00,39.4,35.6,29.95,SE,131,0.0,0.0,86,0.00,,---,0.15,VWS V14.01,2013-02-14 02:25:00,
2013-02-13 21:29:00,39.4,35.6,29.97,SSW,210,0.0,1.0,86,0.00,,---,0.15,VWS V14.01,2013-02-14 02:29:00,
2013-02-13 21:30:00,39.4,35.9,29.95,SE,131,0.0,0.0,87,0.00,,---,0.15,VWS V14.01,2013-02-14 02:30:00,
2013-02-13 21:34:00,39.4,35.3,29.97,SSW,210,0.0,0.0,85,0.00,,---,0.15,VWS V14.01,2013-02-14 02:34:00,
2013-02-13 21:35:00,39.3,35.5,29.96,SSW,210,0.0,1.0,86,0.00,,---,0.15,VWS V14.01,2013-02-14 02:35:00,
2013-02-13 21:39:00,39.5,35.4,29.98,SSW,210,0.0,0.0,85,0.00,,---,0.15,VWS V14.01,2013-02-14 02:39:00,
2013-02-13 21:40:00,39.4,35.6,29.96,SSW,210,0.0,0.0,86,0.00,,---,0.15,VWS V14.01,2013-02-14 02:40:00,
2013-02-13 21:44:00,39.5,35.7,29.98,SSW,210,0.0,0.0,86,0.00,,---,0.15,VWS V14.01,2013-02-14 02:44:00,
2013-02-13 21:45:00,39.4,35.9,29.96,SSW,210,0.0,0.0,87,0.00,,---,0.15,VWS V14.01,2013-02-14 02:45:00,
2013-02-13 21:49:00,39.5,36.5,29.98,SSW,210,0.0,0.0,89,0.00,,---,0.15,VWS V14.01,2013-02-14 02:49:00,
2013-02-13 21:50:00,39.4,35.9,29.96,SSW,210,0.0,1.0,87,0.00,,---,0.15,VWS V14.01,2013-02-14 02:50:00,
2013-02-13 21:54:00,39.3,36.0,29.98,SSW,210,0.0,0.0,88,0.00,,---,0.15,VWS V14.01,2013-02-14 02:54:00,
2013-02-13 21:55:00,39.3,35.2,29.96,SSW,210,0.0,0.0,85,0.00,,---,0.15,VWS V14.01,2013-02-14 02:55:00,
2013-02-13 21:59:00,39.2,36.2,29.98,SSW,210,0.0,0.0,89,0.00,,---,0.15,VWS V14.01,2013-02-14 02:59:00,
2013-02-13 22:00:00,39.4,35.3,29.96,SSW,210,0.0,1.0,85,0.00,,---,0.15,VWS V14.01,2013-02-14 03:00:00,
2013-02-13 22:04:00,39.1,36.1,29.98,SSW,210,0.0,1.0,89,0.00,,---,0.15,VWS V14.01,2013-02-14 03:04:00,
2013-02-13 22:05:00,39.5,35.4,29.96,SSW,210,0.0,0.0,85,0.00,,---,0.15,VWS V14.01,2013-02-14 03:05:00,
2013-02-13 22:09:00,39.3,35.5,29.99,ESE,104,0.0,6.0,86,0.00,,---,0.15,VWS V14.01,2013-02-14 03:09:00,
2013-02-13 22:10:00,39.5,35.7,29.96,SSW,210,0.0,0.0,86,0.00,,---,0.15,VWS V14.01,2013-02-14 03:10:00,
2013-02-13 22:14:00,39.5,35.4,29.99,East,101,0.0,5.0,85,0.00,,---,0.15,VWS V14.01,2013-02-14 03:14:00,
2013-02-13 22:15:00,39.5,36.0,29.97,SSW,210,0.0,0.0,87,0.00,,---,0.15,VWS V14.01,2013-02-14 03:15:00,
2013-02-13 22:19:00,39.7,35.6,29.99,East,84,0.0,1.0,85,0.00,,---,0.15,VWS V14.01,2013-02-14 03:19:00,
2013-02-13 22:20:00,39.4,35.3,29.97,SSW,210,0.0,0.0,85,0.00,,---,0.15,VWS V14.01,2013-02-14 03:20:00,
2013-02-13 22:24:00,39.8,35.4,29.99,East,84,0.0,0.0,84,0.00,,---,0.15,VWS V14.01,2013-02-14 03:24:00,
2013-02-13 22:25:00,39.3,35.2,29.97,SSW,210,0.0,1.0,85,0.00,,---,0.15,VWS V14.01,2013-02-14 03:25:00,
2013-02-13 22:29:00,39.8,35.7,29.99,East,95,0.0,4.0,85,0.00,,---,0.15,VWS V14.01,2013-02-14 03:29:00,
2013-02-13 22:30:00,39.4,35.3,29.97,SSW,210,0.0,1.0,85,0.00,,---,0.15,VWS V14.01,2013-02-14 03:30:00,
2013-02-13 22:34:00,39.8,35.1,29.99,ESE,121,1.0,6.0,83,0.00,,---,0.15,VWS V14.01,2013-02-14 03:34:00,
2013-02-13 22:35:00,39.4,35.0,29.97,SSW,210,0.0,0.0,84,0.00,,---,0.15,VWS V14.01,2013-02-14 03:35:00,
2013-02-13 22:39:00,39.9,34.9,29.99,SW,217,0.0,4.0,82,0.00,,---,0.15,VWS V14.01,2013-02-14 03:39:00,
2013-02-13 22:40:00,39.4,35.3,29.98,SSW,210,0.0,0.0,85,0.00,,---,0.15,VWS V14.01,2013-02-14 03:40:00,
2013-02-13 22:44:00,39.9,34.9,29.99,SW,217,1.0,1.0,82,0.00,,---,0.15,VWS V14.01,2013-02-14 03:44:00,
2013-02-13 22:45:00,39.5,36.0,29.98,SSW,210,0.0,0.0,87,0.00,,---,0.15,VWS V14.01,2013-02-14 03:45:00,
2013-02-13 22:49:00,39.9,34.9,29.99,South,177,0.0,3.0,82,0.00,,---,0.15,VWS V14.01,2013-02-14 03:49:00,
2013-02-13 22:50:00,39.4,36.2,29.98,SSW,210,0.0,0.0,88,0.00,,---,0.15,VWS V14.01,2013-02-14 03:50:00,
2013-02-13 22:54:00,39.9,34.2,29.99,East,96,0.0,4.0,80,0.00,,---,0.15,VWS V14.01,2013-02-14 03:54:00,
2013-02-13 22:55:00,39.2,36.2,29.98,SSW,210,0.0,0.0,89,0.00,,---,0.15,VWS V14.01,2013-02-14 03:55:00,
2013-02-13 22:59:00,39.9,34.5,30.00,West,278,0.0,1.0,81,0.00,,---,0.15,VWS V14.01,2013-02-14 03:59:00,
2013-02-13 23:00:00,39.2,36.2,29.98,SSW,210,0.0,0.0,89,0.00,,---,0.15,VWS V14.01,2013-02-14 04:00:00,
2013-02-13 23:04:00,39.9,34.2,30.00,East,85,0.0,1.0,80,0.00,,---,0.15,VWS V14.01,2013-02-14 04:04:00,
2013-02-13 23:05:00,39.1,36.1,29.98,SSW,211,0.0,1.0,89,0.00,,---,0.15,VWS V14.01,2013-02-14 04:05:00,
2013-02-13 23:09:00,39.9,33.9,30.00,ESE,119,1.0,4.0,79,0.00,,---,0.15,VWS V14.01,2013-02-14 04:09:00,
2013-02-13 23:10:00,39.3,35.8,29.99,ESE,104,0.0,6.0,87,0.00,,---,0.15,VWS V14.01,2013-02-14 04:10:00,
2013-02-13 23:14:00,39.9,34.2,30.00,East,83,4.0,4.0,80,0.00,,---,0.15,VWS V14.01,2013-02-14 04:14:00,
2013-02-13 23:15:00,39.6,35.2,29.99,East,94,0.0,5.0,84,0.00,,---,0.15,VWS V14.01,2013-02-14 04:15:00,
2013-02-13 23:19:00,39.9,33.9,30.00,South,174,1.0,7.0,79,0.00,,---,0.15,VWS V14.01,2013-02-14 04:19:00,
2013-02-13 23:20:00,39.7,35.3,29.99,East,84,0.0,1.0,84,0.00,,---,0.15,VWS V14.01,2013-02-14 04:20:00,
2013-02-13 23:24:00,39.9,33.6,30.01,SW,217,0.0,3.0,78,0.00,,---,0.15,VWS V14.01,2013-02-14 04:24:00,
2013-02-13 23:25:00,39.8,35.4,29.99,East,85,0.0,0.0,84,0.00,,---,0.15,VWS V14.01,2013-02-14 04:25:00,
2013-02-13 23:29:00,39.9,33.9,30.01,East,97,0.0,3.0,79,0.00,,---,0.15,VWS V14.01,2013-02-14 04:29:00,
2013-02-13 23:30:00,39.8,35.7,29.99,East,97,1.0,4.0,85,0.00,,---,0.15,VWS V14.01,2013-02-14 04:30:00,
2013-02-13 23:34:00,39.9,33.6,30.01,East,82,3.0,4.0,78,0.00,,---,0.15,VWS V14.01,2013-02-14 04:34:00,
2013-02-13 23:35:00,39.8,34.8,29.99,SSW,211,4.0,7.0,82,0.00,,---,0.15,VWS V14.01,2013-02-14 04:35:00,
2013-02-13 23:39:00,39.9,33.6,30.01,ESE,113,2.0,4.0,78,0.00,,---,0.15,VWS V14.01,2013-02-14 04:39:00,
2013-02-13 23:40:00,39.9,34.9,29.99,SW,218,0.0,4.0,82,0.00,,---,0.15,VWS V14.01,2013-02-14 04:40:00,
2013-02-13 23:44:00,39.9,33.6,30.01,ESE,120,0.0,1.0,78,0.00,,---,0.15,VWS V14.01,2013-02-14 04:44:00,
2013-02-13 23:45:00,39.9,34.9,29.99,SW,218,0.0,1.0,82,0.00,,---,0.15,VWS V14.01,2013-02-14 04:45:00,
2013-02-13 23:49:00,39.8,33.5,30.01,SW,221,0.0,3.0,78,0.00,,---,0.15,VWS V14.01,2013-02-14 04:49:00,
2013-02-13 23:50:00,39.9,34.5,29.99,ESE,108,0.0,3.0,81,0.00,,---,0.15,VWS V14.01,2013-02-14 04:50:00,
2013-02-13 23:54:00,39.8,34.1,30.01,ESE,120,0.0,2.0,80,0.00,,---,0.15,VWS V14.01,2013-02-14 04:54:00,
2013-02-13 23:55:00,39.9,34.2,29.99,East,96,0.0,4.0,80,0.00,,---,0.15,VWS V14.01,2013-02-14 04:55:00,
2013-02-13 23:59:00,39.7,33.4,30.01,ESE,120,0.0,1.0,78,0.00,,---,0.15,VWS V14.01,2013-02-14 04:59:00,